Regional Weather Roundup
Issued by NWS Jackson, KY

Home | Current Version | Previous Version | Graphics & Text | Print | Product List | Glossary On
Versions: 1 2 3 4 5 6 7 8 9 10 11 12 13 14 15 16 17 18 19 20 21 22 23 24 25 26 27
000
ASUS43 KJKL 180610
RWRJKL

EAST KENTUCKY HOURLY WEATHER ROUNDUP
NATIONAL WEATHER SERVICE JACKSON KY
100 AM EST SAT NOV 18 2017

NOTE: "FAIR" INDICATES FEW OR NO CLOUDS BELOW 12,000 FEET WITH
NO SIGNIFICANT WEATHER AND/OR OBSTRUCTIONS TO VISIBILITY.

* THESE REPORTS ARE NOT UNDER NWS QUALITY CONTROL AND MAY NOT
  REPORT WEATHER SUCH AS PRECIPITATION AND FOG.

KYZ079-080-083-085-087-088-110-112-115-119-120-180700
...EASTERN KENTUCKY...

CITY           SKY/WX    TMP DP  RH WIND       PRES   REMARKS
JACKSON        CLOUDY    51  33  50 VRB5      29.88F
6HR MIN TEMP:  49; 6HR MAX TEMP:  52;

LONDON         PTCLDY    55  35  47 S7        29.90S
6HR MIN TEMP:  45; 6HR MAX TEMP:  55;

SOMERSET*      CLOUDY    55  36  47 S10G18    29.90F
MONTICELLO*    PTCLDY    59  39  47 S12G22    29.90F
6HR MIN TEMP:  50; 6HR MAX TEMP:  60;

WILLIAMSBURG*  PTCLDY    54  36  50 SE7       29.91F
MIDDLESBORO*   PTCLDY    54  37  51 S8G16     29.97F
6HR MIN TEMP:  40; 6HR MAX TEMP:  55;

HARLAN APT*    CLOUDY    52  32  46 CALM      29.95F
PIKE CO APT*     N/A     52  29  40 S6        29.89F
BIG SANDY APT* CLOUDY    53  28  37 S8        29.89F
6HR MIN TEMP:  44; 6HR MAX TEMP:  53;

MOREHEAD APT*  CLOUDY    55  32  41 S12       29.86S
$$

KYZ035-036-041-042-044-050-067-078-099-180700
...CENTRAL KENTUCKY...

CITY           SKY/WX    TMP DP  RH WIND       PRES   REMARKS
MT STERLING*   CLOUDY    54  36  50 SW12G17   29.84F
FLEMING/MASON* CLOUDY    51  34  53 S14       29.81F
DANVILLE*      CLOUDY    55  36  47 SW14G23   29.83F
LEXINGTON      CLOUDY    55  37  50 S14       29.81F
6HR MIN TEMP:  47; 6HR MAX TEMP:  56; 6HR PCP: TRACE;

FRANKFORT      LGT RAIN  56  37  49 S13       29.80F
6HR MIN TEMP:  46; 6HR MAX TEMP:  56; 6HR PCP: TRACE;

LOUISVILLE     CLOUDY    61  37  41 S18G29    29.76F
6HR MIN TEMP:  49; 6HR MAX TEMP:  61; 6HR PCP: TRACE;

LEBANON*         N/A     57  36  44 SW17G26   29.84R
GLASGOW*       CLOUDY    59  33  37 S7        29.88R
BOWLING GREEN  CLOUDY    61  36  39 S17G23    29.85F
6HR MIN TEMP:  52; 6HR MAX TEMP:  62;

$$

KYZ091>093-OHZ055-061-077-WVZ005-015-034-035-042-180700
...SOUTHERN OHIO/WEST VIRGINIA...

CITY           SKY/WX    TMP DP  RH WIND       PRES   REMARKS
COVINGTON      CLOUDY    52  39  61 S14       29.74F
COLUMBUS       CLOUDY    46  31  55 SE9       29.75F
DAYTON         LGT RAIN  49  38  65 S22G29    29.71F
WILMINGTON     LGT RAIN  47  37  68 S14       29.75F
HUNTINGTON     PTCLDY    44  29  55 SE6       29.84F
CHARLESTON     CLOUDY    37  31  78 N3        29.88F
PINEVILLE*     CLOUDY    39  34  82 MISG      30.01S
BECKLEY        CLOUDY    45  23  42 S10       29.96F
BLUEFIELD      CLOUDY    48  23  37 S9        29.98F
LOGAN CO APT*    N/A     52  23  32 CALM      29.90F
$$

VAZ002-007-008-TNZ017-027-036-066-071-180700
...SOUTHWEST VIRGINIA/EAST TENNESSEE...

CITY           SKY/WX    TMP DP  RH WIND       PRES   REMARKS
WISE*          CLOUDY    50  32  50 S10       29.96F
JONESVILLE*      N/A     41  36  81 CALM      30.00F
ABINGDON*      PTCLDY    45  33  62 CALM      30.00F
BRISTOL        CLOUDY    41  35  79 CALM      29.99F
MORRISTOWN*    PTCLDY    46  37  71 SE5       29.97F
SEVIERVILLE*   CLEAR     41  37  87 CALM      29.99F
KNOXVILLE      CLOUDY    45  43  93 NE5       29.97F
LAFOLLETTE*    CLEAR     55  37  50 VRB5      29.99F
OAK RIDGE      PTCLDY    52  40  63 VRB3      30.00F
CROSSVILLE     PTCLDY    53  38  56 S13G21    29.95F
NASHVILLE      MOCLDY    59  37  44 S13       29.90R
$$

...KEY TO REMARKS...
VSB - VISIBILITY IN MILES
WCI - WIND CHILL INDEX
HX  - HEAT INDEX

$$




USA.gov is the U.S. government's official web portal to all federal, state and local government web resources and services.